Weather in Santa Cruz de Barahona

Dominican Republic     18°12′26″N   71°06′00″W
temp.,
°C
wind,
m/s
gust,
m/s
humid.,
%
clouds,
%
prec.,
mm/h
press.,
hPa
HPBL,
m
27 february, sat
sat2723:00+24ene567017 0.0 1018459
02:00+22nw11738 0.0 1018186
05:00+22nnw337118 0.0 1017192
08:00+22nw336542 0.0 1019137
11:00+26se68642 0.0 10191041
14:00+27se9116827 0.2 1018959
17:00+27ese9126872 0.2 1016860
20:00+25ese8127058 0.3 1018643
28 february, sun
sun2823:00+24e810710 0.0 1019653
02:00+24ene58690 0.0 1018797
05:00+24ene496815 0.1 10171009
08:00+23ne476437 0.1 1019627
11:00+27ese811607 0.0 10201188
14:00+27se911644 0.1 10171043
17:00+26se1013680 0.1 1016826
20:00+25ese710690 0.1 1017430
1 march, mon
mon123:00+24e58580 0.0 1018487
02:00+23ne24580 0.0 1017264
05:00+22nw32680 0.0 1016196
08:00+22nw22630 0.0 1018132
11:00+25se24560 0.0 1018710
14:00+27se78610 0.0 1015850
17:00+26sse79670 0.0 1014799
20:00+25se68750 0.0 1016579
2 march, tue
tue223:00+23sse23770 0.0 1017350
02:00+22wsw01790 0.0 1016308
05:00+21n11790 0.0 1016251
08:00+21nw11740 0.0 1018233
11:00+24sse32630 0.0 1018528
14:00+25sse67640 0.0 1015612
17:00+25se68670 0.0 1014697
20:00+24se57770 0.0 1016562
3 march, wed
wed323:00+24ese34792 0.0 1018484
02:00+22nw22833 0.0 1016219
05:00+21wnw22859 0.0 1016153
08:00+22nnw33789 0.0 1018191
11:00+24sse35631 0.0 1019646
14:00+25se56681 0.0 1016683
17:00+25se67710 0.0 1015773
20:00+24se46790 0.0 1016579